This demonstration page uses our WeatherBlox Daily Observations layout. Learn more.

Hourly Observations for May 26, 2016

Temp ( °F °C ) Dew Point ( °F °C ) Humidity (%) Winds ( mph kmh ) Pressure ( in mb ) Visibility ( mi km ) Precip ( " mm )
12:15 am 00:15 Cloudy with Rain 62 16.9 49 9.6 62 62 N 22 35 29.85 1011 10 16.0934 0.01 0.254
12:35 am 00:35 Partly Cloudy 64 17.8 46 8 53 53 N 8 13 29.8 1009 10 16.0934 0.02 0.508
12:55 am 00:55 Clear 64 17.5 47 8.1 54 54 Calm 29.8 1009 10 16.0934 0.02 0.508
1:15 am 01:15 Clear 62 16.5 48 8.8 61 61 Calm 29.8 1009 10 16.0934 0 0
1:35 am 01:35 Clear 63 17.2 46 7.9 55 55 Calm 29.77 1008 10 16.0934 0 0
1:55 am 01:55 Clear 59 15 47 8.4 65 65 Calm 29.77 1008 10 16.0934 0 0
2:15 am 02:15 Clear 60 15.6 48 9 65 65 Calm 29.77 1008 10 16.0934 0 0
2:35 am 02:35 Clear 60 15.3 48 8.9 66 66 Calm 29.77 1008 10 16.0934 0 0
2:55 am 02:55 Clear 57 13.7 49 9.7 77 77 NNE 6 9 29.83 1010 10 16.0934 0 0
3:15 am 03:15 Clear 56 13.1 50 9.8 81 81 N 3 6 29.85 1011 10 16.0934 0 0
3:35 am 03:35 Clear 56 13.4 50 10 80 80 Calm 29.85 1011 10 16.0934 0 0
3:55 am 03:55 Clear 54 12 50 10.1 88 88 Calm 29.85 1011 10 16.0934 0 0
4:15 am 04:15 Clear 55 12.5 50 10.2 86 86 Calm 29.85 1011 10 16.0934 0 0
4:35 am 04:35 Clear 53 11.6 50 9.9 89 89 Calm 29.85 1011 10 16.0934 0 0
4:55 am 04:55 Partly Cloudy 53 11.9 51 10.3 90 90 Calm 29.85 1011 10 16.0934 0 0
5:15 am 05:15 Clear 53 11.9 50 9.9 88 88 Calm 29.85 1011 10 16.0934 0 0
5:35 am 05:35 Clear 53 11.5 50 10 91 91 Calm 29.85 1011 10 16.0934 0 0
5:55 am 05:55 Clear 52 11 49 9.6 91 91 Calm 29.88 1012 10 16.0934 0 0
6:15 am 06:15 Sunny 52 11 50 9.8 92 92 Calm 29.88 1012 10 16.0934 0 0
6:35 am 06:35 Partly Cloudy 51 10.8 49 9.3 91 91 Calm 29.88 1012 10 16.0934 0 0
6:55 am 06:55 Partly Cloudy 53 11.5 51 10.5 94 94 Calm 29.85 1011 10 16.0934 0 0
7:15 am 07:15 Mostly Cloudy 54 12.3 52 11.1 92 92 N 3 6 29.88 1012 10 16.0934 0 0
7:35 am 07:35 Cloudy 56 13.1 53 11.4 90 90 Calm 29.85 1011 10 16.0934 0 0
7:55 am 07:55 Partly Cloudy 57 13.9 54 12 88 88 Calm 29.85 1011 10 16.0934 0 0
8:15 am 08:15 Mostly Cloudy 58 14.5 54 12.3 87 87 Calm 29.85 1011 10 16.0934 0 0
8:35 am 08:35 Cloudy 59 15 55 12.8 87 87 Calm 29.83 1010 10 16.0934 0 0
8:55 am 08:55 Cloudy 60 15.4 55 13 86 86 N 6 9 29.85 1011 10 16.0934 0 0
9:15 am 09:15 Partly Cloudy 61 16 56 13.1 83 83 NE 8 13 29.85 1011 10 16.0934 0 0
9:35 am 09:35 Sunny 63 17.2 55 13 76 76 ENE 13 20 29.85 1011 10 16.0934 0 0
9:55 am 09:55 Sunny 65 18.1 56 13.5 75 75 E 9 15 29.83 1010 10 16.0934 0 0
10:15 am 10:15 Sunny 66 18.8 56 13.2 70 70 E 10 17 29.8 1009 10 16.0934 0 0
10:35 am 10:35 Sunny 67 19.5 55 12.7 65 65 E 13 20 29.8 1009 10 16.0934 0 0
10:55 am 10:55 Sunny 69 20.3 56 13.2 64 64 E 15 24 29.77 1008 10 16.0934 0 0
11:15 am 11:15 Sunny 70 21 55 12.8 60 60 E 12 19 29.8 1009 10 16.0934 0 0
11:35 am 11:35 Mostly Cloudy 70 21.2 54 12.1 56 56 ENE 8 13 29.8 1009 10 16.0934 0 0
11:55 am 11:55 Cloudy 72 22 54 12 53 53 ENE 10 17 29.77 1008 10 16.0934 0 0
12:15 pm 12:15 Mostly Cloudy 71 21.8 55 12.7 56 56 NNE 14 22 29.8 1009 10 16.0934 0 0
12:35 pm 12:35 Partly Cloudy 72 22.3 57 13.7 58 58 NNE 15 24 29.74 1007 10 16.0934 0 0
12:55 pm 12:55 Sunny 73 22.6 56 13.3 56 56 NNE 16 26 29.71 1006 10 16.0934 0 0
1:15 pm 13:15 Partly Cloudy 74 23.2 56 13.6 55 55 NE 14 22 29.74 1007 10 16.0934 0 0
1:35 pm 13:35 Partly Cloudy 73 22.8 55 12.9 54 54 ENE 15 24 29.71 1006 10 16.0934 0 0
1:55 pm 13:55 Sunny 74 23.4 57 14 56 56 ENE 16 26 29.71 1006 10 16.0934 0 0
2:15 pm 14:15 Sunny 74 23.3 56 13.3 54 54 ENE 20 31 29.68 1005 10 16.0934 0 0
2:35 pm 14:35 Sunny 75 23.7 57 13.7 54 54 NE 20 31 29.68 1005 10 16.0934 0 0
2:55 pm 14:55 Sunny 75 24 58 14.4 55 55 NE 16 26 29.68 1005 10 16.0934 0 0
3:15 pm 15:15 Sunny 75 24.1 57 14 53 53 NE 17 28 29.65 1004 10 16.0934 0 0
3:35 pm 15:35 Sunny 75 24.1 56 13.5 52 52 ENE 14 22 29.68 1005 10 16.0934 0 0
3:55 pm 15:55 Sunny 74 23.2 56 13.4 54 54 ENE 17 28 29.68 1005 10 16.0934 0 0
4:15 pm 16:15 Sunny with Nearby Thunderstorms 73 22.7 56 13.6 57 57 ENE 13 20 29.65 1004 10 16.0934 0 0
4:35 pm 16:35 Sunny 72 22.4 57 14 59 59 ENE 12 19 29.65 1004 7 11.26538 0 0
4:55 pm 16:55 Partly Cloudy 71 21.6 58 14.6 65 65 E 13 20 29.65 1004 7 11.26538 0 0
5:15 pm 17:15 Cloudy with Haze 71 21.5 57 14.1 63 63 E 12 19 29.65 1004 4 6.43736 0 0
5:35 pm 17:35 Hazy 71 21.5 58 14.3 64 64 E 14 22 29.65 1004 4 6.43736 0 0
5:55 pm 17:55 Mostly Cloudy with Nearby Thunderstorms 70 21.1 58 14.5 66 66 E 18 30 29.65 1004 10 16.0934 0 0
6:15 pm 18:15 Cloudy 66 19.1 59 14.8 76 76 ESE 21 33 29.68 1005 10 16.0934 0 0
6:35 pm 18:35 Cloudy with Light Rain 66 18.7 58 14.5 77 77 E 16 26 29.65 1004 10 16.0934 0 0
6:55 pm 18:55 Partly Cloudy 66 19.1 58 14.5 75 75 E 15 24 29.62 1003 10 16.0934 0 0
7:15 pm 19:15 Partly Cloudy 65 18.5 59 15 80 80 E 14 22 29.62 1003 10 16.0934 0 0
7:35 pm 19:35 Mostly Cloudy 65 18.5 60 15.5 83 83 E 9 15 29.65 1004 10 16.0934 0 0
7:55 pm 19:55 Partly Cloudy 65 18.6 60 15.7 83 83 E 9 15 29.62 1003 10 16.0934 0 0
8:15 pm 20:15 Partly Cloudy 65 18.1 59 15 82 82 ENE 12 19 29.65 1004 10 16.0934 0 0
8:35 pm 20:35 Partly Cloudy 64 17.5 58 14.5 83 83 ENE 10 17 29.65 1004 10 16.0934 0 0
8:55 pm 20:55 Sunny 63 17.2 56 13.6 80 80 ENE 10 17 29.62 1003 10 16.0934 0 0
9:15 pm 21:15 Mostly Cloudy 62 16.9 56 13.1 78 78 E 14 22 29.65 1004 10 16.0934 0 0
9:35 pm 21:35 Cloudy with Light Thunderstorms 60 15.8 56 13.6 87 87 E 16 26 29.71 1006 10 16.0934 0.13 3.302
9:55 pm 21:55 Cloudy 60 15.7 57 14 90 90 E 16 26 29.68 1005 10 16.0934 0.13 3.302
10:15 pm 22:15 Mostly Cloudy with Thunderstorms 60 15.4 57 13.9 91 91 E 22 35 29.68 1005 10 16.0934 0 0
10:35 pm 22:35 Mostly Cloudy with Thunderstorms 60 15.3 57 13.8 91 91 ESE 15 24 29.74 1007 10 16.0934 0 0
10:55 pm 22:55 Cloudy with Nearby Thunderstorms 60 15.3 57 13.8 91 91 SSE 10 17 29.77 1008 10 16.0934 0.02 0.508
11:15 pm 23:15 Cloudy with Rain 59 15.1 57 13.7 91 91 ESE 12 19 29.74 1007 7 11.26538 0.04 1.016
11:35 pm 23:35 Cloudy with Rain 59 15 57 13.8 93 93 SE 3 6 29.77 1008 7 11.26538 0.11 2.794
11:55 pm 23:55 Cloudy with Rain 58 14.7 57 13.7 94 94 ESE 7 11 29.74 1007 7 11.26538 0.19 4.826

Powered by AerisWeather